This demonstration page uses our WeatherBlox Daily Observations layout. Learn more.

Left ArrowRight Arrow

40.92945, -100.16068

Hourly Observations for April 11, 2020

Temp ( °F °C ) Dew Point ( °F °C ) Humidity (%) Winds ( mph kmh ) Pressure ( in mb ) Visibility ( mi km ) Precip ( " mm )
12:15 am 00:15 Partly Cloudy 47 8.6 38 3.2 69 69 SE 7 11 29.68 1005 10 16 0.00 0.00
12:35 am 00:35 Clear 48 9 38 3.5 69 69 SSE 7 11 29.67 1005 10 16 0.00 0.00
12:55 am 00:55 Clear 47 8.2 38 3.6 73 73 S 8 13 29.68 1005 10 16 0.00 0.00
1:10 am 01:10 Clear 46 7.7 39 3.8 77 77 S 7 11 29.67 1005 10 16 0.00 0.00
1:35 am 01:35 Clear 49 9.4 40 4.4 71 71 S 5 7 29.67 1005 10 16 0.00 0.00
1:55 am 01:55 Clear 49 9.6 40 4.3 70 70 SW 7 11 29.66 1005 10 16 0.00 0.00
2:15 am 02:15 Clear 42 5.7 37 2.8 82 82 Calm 29.70 1006 10 16 0.00 0.00
2:35 am 02:35 Clear 40 4.5 35 1.6 82 82 N 6 9 29.71 1006 10 16 0.00 0.00
2:55 am 02:55 Clear 39 4.1 35 1.7 85 85 N 5 7 29.72 1006 10 16 0.00 0.00
3:15 am 03:15 Clear 39 4 35 1.4 83 83 Calm 29.72 1006 10 16 0.00 0.00
3:35 am 03:35 Clear 39 3.7 35 1.9 88 88 NW 6 9 29.73 1007 10 16 0.00 0.00
3:55 am 03:55 Clear 39 3.9 35 1.7 86 86 NNW 10 17 29.74 1007 10 16 0.00 0.00
4:15 am 04:15 Clear 40 4.3 35 1.5 82 82 N 8 13 29.73 1007 10 16 0.00 0.00
4:35 am 04:35 Clear 40 4.7 35 1.6 81 81 NE 5 7 29.73 1007 10 16 0.00 0.00
4:55 am 04:55 Clear 41 5.1 36 2 81 81 ENE 3 6 29.72 1006 10 16 0.00 0.00
5:15 am 05:15 Clear 42 5.4 35 1.6 77 77 ENE 8 13 29.70 1006 10 16 0.00 0.00
5:35 am 05:35 Clear 41 5.1 35 1.4 77 77 Calm 29.72 1006 10 16 0.00 0.00
5:55 am 05:55 Clear 40 4.6 35 1.6 81 81 ENE 7 11 29.70 1006 10 16 0.00 0.00
6:15 am 06:15 Clear 41 4.8 34 1.1 77 77 ENE 3 6 29.71 1006 10 16 0.00 0.00
6:35 am 06:35 Partly Cloudy 38 3.4 33 0.8 83 83 Calm 29.72 1007 10 16 0.00 0.00
6:55 am 06:55 Clear 38 3.1 34 1 86 86 NNW 8 13 29.73 1007 10 16 0.00 0.00
7:15 am 07:15 Sunny 38 3.4 34 1.1 85 85 WNW 7 11 29.72 1007 10 16 0.00 0.00
7:35 am 07:35 Sunny 39 4 35 1.6 85 85 NNW 8 13 29.72 1006 10 16 0.00 0.00
7:55 am 07:55 Sunny 39 4 35 1.5 84 84 NW 5 7 29.73 1007 10 16 0.00 0.00
8:35 am 08:35 Sunny 42 5.8 37 2.5 80 80 NW 7 11 29.71 1006 10 16 0.00 0.00
8:55 am 08:55 Sunny 46 7.7 37 2.9 72 72 N 8 13 29.69 1005 10 16 0.00 0.00
9:15 am 09:15 Sunny 50 10.1 38 3.5 64 64 N 6 9 29.66 1004 10 16 0.00 0.00
9:35 am 09:35 Sunny 55 13 37 2.8 50 50 NE 12 19 29.63 1004 10 16 0.00 0.00
9:55 am 09:55 Sunny 55 13 36 2 47 47 NE 14 22 29.63 1004 10 16 0.00 0.00
10:15 am 10:15 Sunny 58 14.5 37 2.7 45 45 NE 15 24 29.63 1003 10 16 0.00 0.00
10:35 am 10:35 Sunny 59 15.1 36 2.3 42 42 ENE 15 24 29.63 1003 10 16 0.00 0.00
10:55 am 10:55 Sunny 61 16.1 35 1.8 38 38 NE 16 26 29.62 1003 10 16 0.00 0.00
11:15 am 11:15 Sunny 62 16.9 36 2.2 37 37 ENE 14 22 29.62 1003 10 16 0.00 0.00
11:35 am 11:35 Sunny 64 17.7 37 2.9 37 37 ENE 12 19 29.60 1002 10 16 0.00 0.00
11:55 am 11:55 Sunny 65 18.2 38 3.3 37 37 NE 10 17 29.60 1002 10 16 0.00 0.00
12:15 pm 12:15 Sunny 65 18.5 38 3.6 37 37 ENE 13 20 29.59 1002 10 16 0.00 0.00
12:35 pm 12:35 Sunny 66 18.8 39 3.8 37 37 NE 15 24 29.57 1001 10 16 0.00 0.00
12:55 pm 12:55 Sunny 66 18.9 38 3.6 36 36 E 13 20 29.56 1001 10 16 0.00 0.00
1:15 pm 13:15 Sunny 66 19.1 39 3.9 37 37 ENE 17 28 29.55 1001 10 16 0.00 0.00
1:35 pm 13:35 Sunny 67 19.3 40 4.3 37 37 E 12 19 29.54 1000 10 16 0.00 0.00
1:55 pm 13:55 Sunny 67 19.4 40 4.4 37 37 ENE 10 17 29.53 1000 10 16 0.00 0.00
2:15 pm 14:15 Sunny 67 19.7 40 4.4 37 37 ENE 12 19 29.53 1000 10 16 0.00 0.00
2:35 pm 14:35 Sunny 68 20.2 40 4.6 36 36 ESE 8 13 29.52 1000 10 16 0.00 0.00
2:55 pm 14:55 Sunny 69 20.3 40 4.5 36 36 ENE 9 15 29.51 999 7 11 0.00 0.00
3:15 pm 15:15 Sunny 69 20.5 40 4.7 36 36 ENE 5 7 29.50 999 10 16 0.00 0.00
3:35 pm 15:35 Sunny 69 20.7 41 4.8 35 35 ESE 7 11 29.50 999 10 16 0.00 0.00
3:55 pm 15:55 Sunny 69 20.5 40 4.3 35 35 NE 7 11 29.48 998 10 16 0.00 0.00
4:15 pm 16:15 Partly Cloudy 69 20.4 40 4.4 35 35 SE 5 7 29.48 998 10 16 0.00 0.00
4:35 pm 16:35 Partly Cloudy 68 20.2 38 3.4 33 33 E 6 9 29.48 998 10 16 0.00 0.00
4:55 pm 16:55 Partly Cloudy 68 20.2 39 3.9 34 34 Calm 29.47 998 10 16 0.00 0.00
5:15 pm 17:15 Partly Cloudy 68 20.2 40 4.4 36 36 ENE 6 9 29.47 998 10 16 0.00 0.00
5:35 pm 17:35 Sunny 68 20.2 40 4.6 36 36 ENE 6 9 29.46 998 10 16 0.00 0.00
5:55 pm 17:55 Sunny 67 19.6 41 5 38 38 E 10 17 29.47 998 10 16 0.00 0.00
6:15 pm 18:15 Partly Cloudy 67 19.6 41 5.1 39 39 ESE 9 15 29.47 998 10 16 0.00 0.00
6:35 pm 18:35 Mostly Cloudy 66 19 41 4.8 39 39 E 9 15 29.47 998 10 16 0.00 0.00
6:55 pm 18:55 Partly Cloudy 66 19.1 39 4.1 37 37 E 12 19 29.46 998 10 16 0.00 0.00
7:15 pm 19:15 Sunny 62 16.8 38 3.1 40 40 ENE 24 39 29.48 998 10 16 0.00 0.00
7:35 pm 19:35 Sunny 59 15.2 37 2.5 43 43 ENE 21 33 29.49 999 10 16 0.00 0.00
7:55 pm 19:55 Sunny 58 14.2 36 2 44 44 ENE 18 30 29.51 999 10 16 0.00 0.00
8:15 pm 20:15 Clear 56 13.1 34 1.1 44 44 ENE 16 26 29.52 1000 10 16 0.00 0.00
8:35 pm 20:35 Clear 55 12.5 33 0.6 44 44 ENE 17 28 29.53 1000 10 16 0.00 0.00
8:55 pm 20:55 Clear 54 12 33 0.3 45 45 ENE 17 28 29.54 1000 10 16 0.00 0.00
9:15 pm 21:15 Clear 53 11.5 32 0 45 45 ENE 17 28 29.56 1001 10 16 0.00 0.00
9:35 pm 21:35 Clear 52 10.9 32 0.1 48 48 NNE 15 24 29.59 1002 10 16 0.00 0.00
9:55 pm 21:55 Clear 51 10.4 33 0.3 50 50 NE 16 26 29.60 1002 10 16 0.00 0.00
10:15 pm 22:15 Clear 48 9.1 32 0.2 54 54 NE 20 31 29.62 1003 10 16 0.00 0.00
10:35 pm 22:35 Clear 47 8.5 33 0.3 57 57 NE 20 31 29.60 1003 10 16 0.00 0.00
10:55 pm 22:55 Clear 46 7.7 36 2.1 68 68 NNE 18 30 29.63 1003 10 16 0.00 0.00
11:15 pm 23:15 Clear 45 7 36 2.2 72 72 NNE 21 33 29.65 1004 10 16 0.00 0.00
11:35 pm 23:35 Clear 44 6.4 37 2.5 76 76 NNE 18 30 29.65 1004 10 16 0.00 0.00
11:55 pm 23:55 Clear 43 6 37 2.7 80 80 NNE 15 24 29.66 1004 10 16 0.00 0.00

Powered by AerisWeather